When you browse on this site, cookies collect data to enhance your experience and personalize the content and advertising you see.
Visit our Privacy Policy to learn more. By continuing to use the site, you agree to this use of cookies and data.
  • In Netherlands
  • List of Countries
  • For 7 days
  • Water Temperature
  • Weather Map
  • Weather Widgets
  • user-avatar
    Login

    Hourly Weather Silistra

    Today, 18 August, Sunday

    Time Temperature Precipitation Wind Pressure Humidity
    00:00 +19°C° 0 mm 1 mps 756 mmHg 50%
    01:00 +16°C° 0 mm 0 mps 757 mmHg 52%
    02:00 +18°C° 0 mm 1 mps 757 mmHg 54%
    03:00 +16°C° 0 mm 1 mps 757 mmHg 55%
    04:00 +16°C° 0 mm 1 mps 757 mmHg 57%
    05:00 +14°C° 0 mm 0 mps 757 mmHg 58%
    06:00 +19°C° 0 mm 1 mps 757 mmHg 51%
    07:00 +22°C° 0 mm 1 mps 757 mmHg 44%
    08:00 +24°C° 0 mm 1 mps 757 mmHg 37%
    09:00 +26°C° 0 mm 2 mps 757 mmHg 34%
    10:00 +28°C° 0 mm 2 mps 757 mmHg 30%
    11:00 +30°C° 0 mm 3 mps 757 mmHg 27%
    12:00 +31°C° 0 mm 3 mps 757 mmHg 25%
    13:00 +33°C° 0 mm 3 mps 757 mmHg 22%
    14:00 +34°C° 0 mm 3 mps 757 mmHg 20%
    15:00 +34°C° 0 mm 3 mps 756 mmHg 20%
    16:00 +34°C° 0 mm 3 mps 756 mmHg 19%
    17:00 +34°C° 0 mm 3 mps 756 mmHg 19%
    18:00 +30°C° 0 mm 3 mps 756 mmHg 25%
    19:00 +27°C° 0 mm 3 mps 757 mmHg 31%
    20:00 +25°C° 0 mm 2 mps 757 mmHg 37%
    21:00 +22°C° 0 mm 3 mps 757 mmHg 43%
    22:00 +21°C° 0 mm 3 mps 757 mmHg 49%
    23:00 +20°C° 0 mm 3 mps 757 mmHg 55%

    Tomorrow, 19 August, Monday

    Time Temperature Precipitation Wind Pressure Humidity
    00:00 +19°C° 0 mm 3 mps 758 mmHg 56%
    01:00 +19°C° 0 mm 2 mps 758 mmHg 57%
    02:00 +19°C° 0 mm 2 mps 758 mmHg 58%
    03:00 +18°C° 0 mm 2 mps 758 mmHg 58%
    04:00 +19°C° 0 mm 1 mps 758 mmHg 59%
    05:00 +19°C° 0 mm 1 mps 758 mmHg 59%
    06:00 +21°C° 0 mm 1 mps 758 mmHg 51%
    07:00 +24°C° 0 mm 1 mps 759 mmHg 44%
    08:00 +26°C° 0 mm 1 mps 759 mmHg 36%
    09:00 +28°C° 0 mm 1 mps 759 mmHg 32%
    10:00 +31°C° 0 mm 2 mps 759 mmHg 28%
    11:00 +34°C° 0 mm 2 mps 759 mmHg 23%
    12:00 +35°C° 0 mm 2 mps 758 mmHg 21%
    13:00 +35°C° 0 mm 3 mps 758 mmHg 20%
    14:00 +36°C° 0 mm 3 mps 758 mmHg 18%
    15:00 +36°C° 0 mm 3 mps 758 mmHg 18%
    16:00 +36°C° 0 mm 3 mps 758 mmHg 18%
    17:00 +36°C° 0 mm 3 mps 758 mmHg 19%
    18:00 +33°C° 0 mm 4 mps 758 mmHg 27%
    19:00 +28°C° 0 mm 4 mps 758 mmHg 35%
    20:00 +25°C° 0 mm 5 mps 758 mmHg 44%
    21:00 +23°C° 0 mm 4 mps 759 mmHg 50%
    22:00 +21°C° 0 mm 3 mps 759 mmHg 56%
    23:00 +20°C° 0 mm 3 mps 759 mmHg 62%

    Day after tomorrow, 20 August, Tuesday

    Time Temperature Precipitation Wind Pressure Humidity
    00:00 +20°C° 0 mm 2 mps 759 mmHg 64%
    01:00 +20°C° 0 mm 1 mps 759 mmHg 65%
    02:00 +20°C° 0 mm 1 mps 759 mmHg 67%
    03:00 +20°C° 0 mm 1 mps 759 mmHg 67%
    04:00 +19°C° 0 mm 1 mps 759 mmHg 67%
    05:00 +19°C° 0 mm 1 mps 759 mmHg 67%
    06:00 +20°C° 0 mm 2 mps 759 mmHg 59%
    07:00 +24°C° 0 mm 2 mps 760 mmHg 51%
    08:00 +26°C° 0 mm 2 mps 760 mmHg 43%
    09:00 +28°C° 0 mm 3 mps 760 mmHg 37%
    10:00 +30°C° 0 mm 3 mps 760 mmHg 31%
    11:00 +33°C° 0 mm 4 mps 760 mmHg 26%
    12:00 +34°C° 0 mm 4 mps 760 mmHg 23%
    13:00 +35°C° 0 mm 4 mps 759 mmHg 21%
    14:00 +36°C° 0 mm 4 mps 759 mmHg 19%
    15:00 +36°C° 0 mm 5 mps 759 mmHg 19%
    16:00 +36°C° 0 mm 5 mps 759 mmHg 20%
    17:00 +36°C° 0 mm 5 mps 758 mmHg 20%
    18:00 +33°C° 0 mm 5 mps 759 mmHg 28%
    19:00 +29°C° 0 mm 4 mps 759 mmHg 37%
    20:00 +26°C° 0 mm 4 mps 759 mmHg 45%
    21:00 +25°C° 0 mm 3 mps 759 mmHg 50%
    22:00 +23°C° 0 mm 2 mps 760 mmHg 55%
    23:00 +22°C° 0 mm 1 mps 760 mmHg 60%

    21 August, Wednesday

    Time Temperature Precipitation Wind Pressure Humidity
    00:00 +22°C° 0 mm 1 mps 760 mmHg 62%
    01:00 +22°C° 0 mm 1 mps 759 mmHg 63%
    02:00 +21°C° 0 mm 1 mps 759 mmHg 64%
    03:00 +21°C° 0 mm 1 mps 759 mmHg 65%
    04:00 +21°C° 0 mm 1 mps 759 mmHg 65%
    05:00 +21°C° 0 mm 1 mps 759 mmHg 65%
    06:00 +23°C° 0 mm 2 mps 759 mmHg 57%
    07:00 +25°C° 0 mm 3 mps 759 mmHg 48%
    08:00 +28°C° 0 mm 3 mps 759 mmHg 40%
    09:00 +30°C° 0 mm 3 mps 759 mmHg 36%
    10:00 +33°C° 0 mm 3 mps 759 mmHg 33%
    11:00 +35°C° 0 mm 4 mps 759 mmHg 29%
    12:00 +36°C° 0 mm 4 mps 758 mmHg 27%
    13:00 +37°C° 0 mm 4 mps 758 mmHg 24%
    14:00 +38°C° 0 mm 4 mps 757 mmHg 22%
    15:00 +38°C° 0 mm 4 mps 757 mmHg 22%
    16:00 +38°C° 0 mm 4 mps 757 mmHg 21%
    17:00 +38°C° 0 mm 4 mps 756 mmHg 21%
    18:00 +35°C° 0 mm 4 mps 757 mmHg 29%
    19:00 +32°C° 0 mm 4 mps 757 mmHg 37%
    20:00 +27°C° 0 mm 3 mps 757 mmHg 46%
    21:00 +26°C° 0 mm 3 mps 757 mmHg 49%
    22:00 +25°C° 0 mm 2 mps 757 mmHg 53%
    23:00 +24°C° 0 mm 2 mps 757 mmHg 57%

    22 August, Thursday

    Time Temperature Precipitation Wind Pressure Humidity
    00:00 +24°C° 0 mm 1 mps 757 mmHg 58%
    01:00 +24°C° 0 mm 1 mps 757 mmHg 59%
    02:00 +23°C° 0 mm 1 mps 757 mmHg 60%
    03:00 +23°C° 0 mm 2 mps 757 mmHg 59%
    04:00 +23°C° 0 mm 2 mps 757 mmHg 58%
    05:00 +21°C° 0 mm 3 mps 757 mmHg 57%
    06:00 +23°C° 0 mm 4 mps 757 mmHg 51%
    07:00 +26°C° 0 mm 5 mps 757 mmHg 44%
    08:00 +28°C° 0 mm 7 mps 758 mmHg 38%
    09:00 +30°C° 0 mm 7 mps 758 mmHg 35%
    10:00 +33°C° 0 mm 7 mps 757 mmHg 31%
    11:00 +35°C° 0 mm 8 mps 757 mmHg 28%
    12:00 +37°C° 0 mm 8 mps 757 mmHg 27%
    13:00 +38°C° 0 mm 8 mps 757 mmHg 26%
    14:00 +39°C° 0 mm 7 mps 756 mmHg 24%
    15:00 +38°C° 0 mm 7 mps 756 mmHg 25%
    16:00 +38°C° 0 mm 7 mps 756 mmHg 26%
    17:00 +38°C° 0 mm 7 mps 756 mmHg 26%
    18:00 +35°C° 0 mm 7 mps 756 mmHg 32%
    19:00 +33°C° 0 mm 7 mps 756 mmHg 38%
    20:00 +30°C° 0 mm 6 mps 757 mmHg 44%
    21:00 +29°C° 0 mm 7 mps 757 mmHg 48%
    22:00 +28°C° 0 mm 7 mps 757 mmHg 52%
    23:00 +26°C° 0 mm 7 mps 758 mmHg 57%

    23 August, Friday

    Time Temperature Precipitation Wind Pressure Humidity
    00:00 +24°C° 0 mm 7 mps 758 mmHg 60%
    01:00 +23°C° 0 mm 7 mps 758 mmHg 63%
    02:00 +22°C° 0 mm 7 mps 758 mmHg 67%
    03:00 +21°C° 0 mm 6 mps 758 mmHg 69%
    04:00 +21°C° 0 mm 6 mps 758 mmHg 71%
    05:00 +20°C° 0 mm 6 mps 758 mmHg 74%
    06:00 +21°C° 0 mm 6 mps 758 mmHg 68%
    07:00 +22°C° 0 mm 6 mps 758 mmHg 62%
    08:00 +23°C° 0 mm 7 mps 759 mmHg 57%
    09:00 +27°C° 0 mm 7 mps 758 mmHg 50%
    10:00 +29°C° 0 mm 7 mps 758 mmHg 43%
    11:00 +33°C° 0 mm 7 mps 758 mmHg 36%
    12:00 +34°C° 0 mm 7 mps 758 mmHg 33%
    13:00 +36°C° 0 mm 7 mps 758 mmHg 30%
    14:00 +38°C° 0 mm 7 mps 757 mmHg 27%
    15:00 +38°C° 0 mm 7 mps 757 mmHg 26%
    16:00 +38°C° 0 mm 7 mps 757 mmHg 26%
    17:00 +38°C° 0 mm 7 mps 757 mmHg 26%
    18:00 +35°C° 0 mm 6 mps 757 mmHg 30%
    19:00 +33°C° 0 mm 5 mps 757 mmHg 34%
    20:00 +30°C° 0 mm 4 mps 757 mmHg 38%
    21:00 +29°C° 0 mm 5 mps 758 mmHg 39%
    22:00 +28°C° 0 mm 5 mps 758 mmHg 40%
    23:00 +28°C° 0 mm 6 mps 758 mmHg 41%
    Show more